Wind_Speed
19 16 15 14 14 14 15 16 18 19 21 22 23 24 25 26 26 26 25 25 24 25 25 24 24 23 22 20 19 18 18 17 16 14 13 11 10 10 11 12 13 14 15 18 20 22 23 24 25 24 24 23 22 22 21 21 20 19 20 21 23 24 25 25 25 24 24 23 21
17 15 14 14 14 15 16 17 18 20 21 22 23 24 25 25 25 25 24 24 24 24 24 23 23 22 21 19 18 17 16 15 13 12 11 11 11 12 13 13 14 15 16 19 20 22 24 25 25 24 22 21 20 19 19 20 22 24 26 27 27 27 26 26 25 24 23 22 20
16 15 14 14 15 15 17 18 19 20 21 22 23 24 24 24 24 24 24 23 23 23 23 22 21 20 19 18 17 16 15 13 11 11 11 11 12 12 12 13 13 15 17 19 21 22 23 24 24 24 23 24 24 25 26 28 30 31 30 28 26 24 23 22 21 21 20 19 17
16 15 15 15 16 16 17 18 19 20 21 22 23 23 24 24 24 23 23 23 23 22 22 21 20 19 18 17 17 15 14 11 10 10 11 12 12 12 13 14 15 16 17 19 21 22 23 24 24 25 26 28 28 29 30 30 30 28 26 24 21 19 18 17 16 15 14 13 12
16 16 16 16 17 17 18 19 20 20 21 22 23 23 23 23 23 23 23 22 22 22 21 20 19 18 17 17 16 15 12 10 9 10 11 12 13 14 15 16 17 18 19 21 22 24 25 25 25 25 26 26 26 26 26 25 24 23 21 18 16 14 12 11 11 11 11 11 11
16 16 17 17 18 18 18 19 20 20 21 22 23 23 23 23 22 22 22 22 21 21 20 20 19 18 18 17 16 14 11 8 8 10 12 13 15 16 17 18 19 20 21 22 22 23 23 23 23 23 23 23 23 23 22 21 19 17 15 13 11 11 10 10 10 11 11 12 13
16 17 17 17 18 18 19 19 20 21 21 22 22 23 23 23 22 22 21 21 21 20 20 19 18 18 18 17 16 13 10 9 10 12 15 16 17 18 18 18 19 19 20 20 20 20 20 20 20 20 20 20 20 19 18 16 14 11 10 10 10 11 11 12 12 12 13 13 14
16 17 17 18 18 18 19 20 20 21 22 22 23 23 23 23 22 21 21 21 20 20 19 19 18 18 18 17 15 13 11 11 14 17 19 20 20 19 19 19 19 19 19 19 19 18 18 17 17 16 16 16 15 13 12 11 10 10 10 11 12 12 13 13 14 14 14 14 14
17 17 17 18 19 19 20 21 22 23 23 23 23 23 23 23 22 21 21 20 20 19 19 19 19 19 18 18 16 14 14 15 18 20 21 21 20 20 19 19 19 19 19 19 18 18 17 16 15 14 12 11 10 9 9 10 11 12 13 14 14 15 15 15 15 16 16 16 17
17 18 18 19 20 21 23 24 25 25 25 25 24 24 23 22 22 21 20 20 20 19 19 19 19 19 19 18 18 17 18 19 20 21 21 20 20 20 19 19 19 19 19 18 18 18 17 16 14 12 11 11 10 11 12 12 13 14 15 16 17 17 18 18 18 18 19 19 20
18 19 20 21 22 24 25 25 26 26 26 25 25 24 23 22 21 20 20 20 19 19 19 19 19 20 20 19 19 19 20 20 20 20 20 19 19 19 18 18 18 18 17 17 17 17 16 15 14 12 12 12 13 13 14 15 15 16 17 18 18 19 20 20 21 21 22 23 24
20 21 22 23 24 24 25 26 26 26 26 25 25 24 23 22 21 20 19 19 19 19 19 20 20 20 21 20 20 20 21 21 21 20 19 19 18 18 18 18 17 17 17 16 16 15 15 14 14 13 13 13 14 14 15 16 17 18 18 19 20 21 22 22 23 24 25 26 27
21 22 23 24 24 25 25 25 25 25 25 25 25 24 23 22 20 19 19 18 18 19 19 20 20 21 21 21 21 21 21 21 21 20 19 19 18 18 18 18 17 17 16 16 16 15 14 14 14 14 14 14 15 16 17 17 18 19 20 21 22 23 23 24 25 26 27 28 28
23 24 24 25 25 25 25 24 24 25 25 25 25 24 23 21 20 19 18 18 18 19 19 20 21 21 22 22 22 22 22 22 21 20 19 19 18 18 18 18 18 17 17 16 16 15 15 15 15 15 15 16 16 17 18 19 20 21 22 22 23 24 25 25 26 26 27 27 28
24 24 25 25 25 24 24 24 25 25 26 26 25 24 22 21 20 19 18 18 19 19 19 20 21 22 22 22 22 23 23 22 21 20 19 19 19 19 19 19 18 18 17 16 16 16 16 16 17 17 17 17 18 19 20 21 21 22 23 23 24 24 25 25 26 26 26 27 27
25 25 25 25 24 24 24 24 25 26 26 25 24 23 22 21 20 20 19 19 19 19 20 20 21 22 22 23 23 23 23 23 22 21 20 19 19 19 19 19 19 18 18 17 17 17 18 18 18 19 19 19 20 21 21 22 23 23 24 24 24 24 24 24 25 25 25 26 26
25 25 24 24 24 23 24 25 25 26 25 25 23 22 22 21 21 20 20 20 20 20 20 20 21 22 23 23 24 24 24 23 22 21 20 20 20 20 20 20 19 19 19 19 19 19 19 20 20 20 21 21 22 22 23 23 24 24 24 24 24 23 23 24 24 24 25 25 26
25 24 24 23 23 23 24 25 25 25 25 23 22 22 21 21 21 21 21 20 20 20 20 21 21 22 23 24 24 24 24 23 22 21 21 21 21 21 21 21 21 21 20 20 20 20 21 21 21 22 22 23 23 23 24 24 24 24 24 23 23 23 23 23 24 25 25 26 27
24 24 23 23 23 23 24 25 25 25 24 23 22 22 22 21 21 21 21 21 20 20 21 21 22 23 23 24 25 25 24 23 22 22 22 22 22 22 22 22 22 22 21 21 21 22 22 22 22 23 23 23 23 23 24 24 24 24 24 23 23 23 24 24 25 26 27 28 28
24 24 23 23 23 23 24 25 25 25 24 23 22 21 21 21 21 21 21 21 21 21 21 21 22 23 24 25 25 25 24 23 23 23 23 23 23 23 23 22 22 22 22 22 22 23 23 23 23 23 23 23 23 23 23 23 23 23 23 23 24 24 25 26 26 27 28 29 30
24 23 23 23 23 24 25 25 25 25 24 23 22 21 21 21 21 21 21 21 21 21 21 22 22 23 24 25 25 25 24 24 24 24 24 24 24 23 23 22 22 22 23 23 23 23 23 23 23 23 23 22 22 23 23 23 23 23 24 24 25 25 26 26 27 28 29 30 30
24 24 24 24 24 24 25 25 25 25 24 23 21 20 20 21 21 21 21 21 21 21 22 22 23 23 24 25 25 25 25 25 25 25 25 24 24 23 23 23 23 23 23 23 23 23 23 23 22 22 22 22 22 23 23 23 24 24 25 25 26 26 26 27 27 28 29 30 31
24 24 24 24 25 25 25 25 25 24 23 22 20 20 20 20 21 21 21 21 21 21 22 22 23 23 24 24 25 25 26 26 26 25 25 24 23 23 23 23 23 23 23 23 23 23 23 22 22 22 23 23 23 23 24 24 25 26 26 26 26 26 27 27 28 29 30 31 32
24 24 25 25 25 25 25 25 24 24 23 21 20 20 20 20 21 21 21 21 21 22 22 22 23 23 24 24 25 26 26 26 26 25 24 23 23 23 22 22 22 22 22 22 22 22 22 22 22 23 24 24 25 25 26 26 26 26 26 26 26 27 27 28 28 29 30 32 33
24 25 25 26 26 26 25 24 24 23 23 22 21 21 21 21 21 21 21 21 21 22 22 22 23 23 24 25 26 26 26 26 25 24 23 22 22 22 22 21 21 21 21 21 21 22 22 23 23 24 25 25 26 26 26 26 26 25 26 26 26 27 28 29 30 31 31 33 33
25 26 26 26 26 26 25 24 24 23 23 23 22 22 21 22 22 22 22 22 22 22 22 23 23 24 25 25 26 26 26 25 24 22 21 21 21 21 21 21 21 21 21 22 22 23 23 24 24 25 25 25 25 25 25 24 24 25 25 26 27 28 29 30 31 31 32 33 34
26 26 26 26 26 25 24 24 24 24 24 23 23 23 23 23 23 23 22 22 22 22 23 24 24 25 25 25 25 25 24 23 21 20 20 20 20 20 21 21 22 22 23 23 24 24 25 25 24 24 24 24 24 23 23 24 24 25 26 27 27 28 29 30 31 32 33 34 34
27 27 27 26 25 25 24 25 25 25 25 24 23 23 23 23 23 23 23 23 23 24 24 25 25 25 24 24 23 23 21 20 19 19 19 19 20 21 22 23 24 24 25 25 25 24 24 23 23 22 22 22 22 23 23 24 25 26 26 27 28 29 30 31 32 33 34 34 35
27 27 27 26 26 26 26 26 26 26 25 24 23 23 23 24 23 23 22 22 23 24 24 23 23 22 21 21 20 19 18 17 17 18 20 21 22 24 24 25 25 24 24 23 23 22 21 21 20 20 20 21 22 23 24 25 25 26 27 28 29 30 31 32 33 33 34 34 34
28 28 28 27 27 27 28 28 28 27 25 23 23 23 23 24 23 22 22 21 21 21 20 19 18 18 17 17 16 16 16 18 19 21 23 24 24 24 24 23 23 22 21 20 20 20 19 19 20 20 21 21 22 23 24 25 26 27 28 29 30 31 32 32 33 33 34 33 33
29 29 29 28 28 28 29 29 28 26 24 23 22 22 23 23 22 21 20 19 18 17 16 15 15 15 15 16 17 18 20 21 23 24 24 24 23 23 22 21 21 20 20 20 20 20 20 20 21 21 22 22 23 24 25 26 27 28 29 30 31 32 32 33 33 33 33 32 31
30 30 30 29 29 29 29 28 26 24 23 21 20 20 20 19 18 17 16 16 15 15 16 16 16 17 18 19 20 21 23 23 24 24 23 23 22 22 21 21 21 20 20 21 21 21 21 21 22 22 23 23 24 25 26 27 28 29 30 31 32 32 32 32 32 32 31 30 30
30 30 30 30 29 28 27 25 23 21 20 18 16 15 14 14 14 14 15 15 16 16 17 18 19 19 20 21 22 22 23 23 23 23 23 23 23 22 22 22 21 21 21 21 21 22 22 22 23 23 24 25 26 27 28 29 30 30 31 32 32 32 32 32 31 31 30 29 29
30 30 30 29 27 26 24 21 20 18 16 14 12 12 11 12 13 13 14 15 16 17 18 19 20 20 21 21 21 22 22 22 22 23 23 23 23 23 22 22 21 21 21 21 22 22 22 23 24 24 25 26 27 28 28 29 30 31 31 31 31 31 31 30 30 29 29 28 28
30 29 28 26 24 22 20 18 16 14 12 11 11 10 10 11 12 13 14 16 17 18 19 20 20 20 20 21 21 21 22 22 22 23 23 23 23 22 22 21 21 21 21 21 22 22 23 24 24 25 26 26 27 28 29 29 30 30 30 30 30 30 30 29 29 28 28 27 27
27 26 24 22 20 18 16 14 12 11 10 10 10 10 11 11 13 14 16 17 18 18 19 19 19 19 20 20 21 21 22 22 22 23 23 22 22 22 21 21 21 21 21 22 22 23 23 24 25 25 26 27 27 28 29 29 29 29 29 29 29 29 29 28 28 27 27 26 25
23 22 21 19 16 14 12 10 10 9 9 9 10 11 12 13 14 15 16 17 17 17 17 18 18 19 20 21 21 22 22 22 22 22 22 22 21 21 21 21 21 21 21 22 22 23 24 24 25 25 26 27 27 27 28 28 28 28 28 28 28 28 27 27 27 26 26 24 23
19 19 17 15 12 10 9 8 8 8 9 10 11 12 13 13 14 15 15 15 15 15 16 17 18 20 21 21 22 22 22 22 22 21 21 21 21 21 21 21 21 22 22 22 23 23 24 24 25 26 26 26 26 26 26 26 26 26 26 26 26 26 26 26 25 25 24 23 21
20 17 14 10 8 7 7 7 7 8 9 10 11 11 12 12 13 13 13 14 14 15 17 18 19 20 21 22 22 22 22 22 21 21 20 20 21 21 21 21 22 22 22 23 23 24 24 25 25 26 26 26 25 24 24 24 24 24 25 25 25 25 25 24 24 23 23 22 21
18 13 9 6 6 6 6 7 8 8 9 10 10 11 11 12 12 12 13 13 15 16 18 19 20 21 21 21 21 21 21 21 21 20 20 20 21 21 22 22 22 23 23 23 24 24 25 25 26 26 25 24 23 22 22 22 23 23 23 23 23 23 23 23 23 22 22 21 20
12 7 5 4 5 6 7 7 7 8 9 10 11 11 12 12 12 12 13 14 16 17 18 20 21 21 21 21 21 20 20 20 20 20 20 20 21 21 22 22 23 23 23 24 24 25 25 26 26 26 24 23 21 20 20 20 21 22 23 22 22 22 22 22 22 22 21 21 20
Wind_Direction
298 296 295 297 300 306 311 316 321 325 328 330 332 332 332 331 329 327 324 321 317 314 312 312 311 311 311 311 313 315 317 320 324 328 330 329 324 316 305 290 276 263 251 241 237 235 234 234 234 235 236 238 239 240 242 246 251 257 263 268 272 275 279 281 281 280 279 279 279
297 296 296 299 304 310 315 320 324 327 330 331 332 332 332 330 328 325 321 318 314 312 311 310 309 308 308 308 310 311 314 317 322 327 331 329 323 316 307 294 281 271 260 248 250 248 244 241 241 242 244 248 251 256 261 267 273 278 281 282 283 284 284 285 284 284 284 283 283
297 296 298 303 308 313 318 322 326 328 330 331 331 332 331 329 327 323 319 315 313 310 309 307 306 305 305 305 306 307 309 312 320 328 333 332 328 320 311 301 292 281 269 258 255 254 253 252 253 257 261 266 270 274 277 281 284 287 288 289 288 288 287 286 286 286 286 285 285
298 299 302 307 312 316 320 324 326 328 329 330 330 331 330 328 325 321 317 314 311 309 307 305 303 301 300 300 301 302 304 309 321 331 335 334 329 321 313 305 297 287 276 268 263 262 263 265 267 270 273 276 279 282 284 287 289 291 293 294 295 295 295 294 293 292 291 291 292
300 302 306 310 315 319 322 324 326 327 327 328 328 329 328 326 323 319 316 312 309 307 304 302 299 297 296 296 296 297 299 307 322 333 334 331 325 318 312 306 300 293 286 281 275 271 270 271 273 276 279 282 285 287 289 291 293 295 298 302 306 309 311 311 310 306 303 300 297
303 306 309 313 316 319 322 324 325 326 326 326 326 326 326 324 321 318 314 310 307 304 302 299 296 294 293 293 293 293 294 302 316 324 325 322 319 314 310 307 303 298 292 286 280 275 274 275 278 280 282 284 285 286 288 291 296 301 307 313 317 319 318 316 310 303 296 290 285
306 309 311 314 317 320 322 324 324 324 323 323 324 324 324 322 320 316 313 309 306 302 299 297 295 293 292 291 290 287 287 295 306 312 315 316 316 315 313 310 306 300 294 287 282 280 279 280 281 281 280 280 281 283 287 293 299 306 310 310 308 307 304 299 295 290 285 281 278
309 311 313 315 317 319 321 321 321 321 320 320 321 322 322 321 318 315 312 308 304 300 298 296 294 293 291 289 285 280 282 293 304 310 314 317 317 316 314 311 307 302 296 292 289 287 285 284 282 280 279 280 282 285 290 294 297 299 298 297 298 297 296 294 292 289 287 285 283
310 311 313 315 316 317 317 317 317 317 316 317 318 319 320 319 317 313 310 306 302 299 297 295 294 291 289 286 281 278 284 296 306 312 315 317 316 315 312 309 305 301 298 296 294 292 290 289 287 285 284 284 285 287 289 291 293 294 296 298 299 300 300 299 298 296 294 292 290
310 311 313 313 314 314 314 314 314 314 314 314 316 317 318 317 315 311 307 304 301 299 297 296 294 291 288 285 282 283 290 299 306 310 313 313 312 311 309 306 303 300 297 296 295 294 293 291 289 286 285 285 285 285 287 289 293 296 298 300 301 302 302 301 300 299 298 296 295
309 310 311 311 312 312 312 312 312 312 312 314 315 317 317 315 313 309 306 302 300 298 297 296 294 292 290 287 287 289 295 301 305 308 309 309 309 307 305 303 300 298 296 294 293 291 289 287 284 281 279 280 282 284 286 289 292 295 296 296 297 297 298 298 298 297 297 296 296
308 309 309 310 310 311 310 310 310 310 312 314 316 317 316 314 311 308 304 300 298 297 296 296 295 294 292 291 291 293 297 301 304 305 306 306 305 303 301 299 297 296 293 291 289 286 283 280 276 274 273 275 278 281 284 287 288 290 290 291 291 291 292 293 293 294 294 294 293
307 307 308 308 308 308 307 307 307 310 313 315 316 316 315 312 309 306 303 300 298 297 297 296 296 295 294 293 293 295 297 299 301 302 302 301 300 299 297 296 294 292 290 287 284 281 276 272 270 269 270 272 274 277 280 282 284 285 286 287 287 288 289 290 290 291 291 291 291
305 306 306 305 305 304 304 305 307 310 314 315 316 315 313 310 307 305 302 300 299 298 297 297 296 295 294 293 293 293 295 296 297 297 297 297 296 295 294 292 290 288 285 282 278 274 270 266 265 265 267 269 271 274 276 278 280 282 283 285 286 287 288 289 289 290 290 290 290
304 304 303 303 302 301 302 305 309 313 315 316 316 314 312 309 306 304 301 301 300 299 298 297 296 294 293 291 291 291 292 292 292 292 292 292 292 292 291 290 287 284 280 275 272 269 265 263 262 263 265 267 269 272 274 276 278 280 282 284 286 287 289 290 290 291 291 291 291
302 302 302 301 300 301 303 307 311 315 316 317 315 313 310 307 305 303 301 301 300 298 297 296 294 292 291 289 288 288 288 288 288 289 289 289 290 290 289 287 283 279 274 269 266 265 263 262 262 263 265 267 269 271 273 275 277 279 281 284 286 288 290 291 292 293 293 293 294
301 301 300 299 299 301 305 309 313 316 317 317 314 311 308 305 303 302 301 300 298 297 295 294 292 290 288 287 286 285 286 286 286 286 287 288 289 288 287 283 279 275 271 267 264 262 262 262 263 265 266 268 269 271 273 275 277 279 282 284 287 289 292 294 295 296 297 297 297
299 299 298 298 299 302 306 311 314 316 317 316 312 309 305 303 300 299 298 297 296 295 293 291 289 288 286 285 284 284 284 284 284 285 286 287 287 286 284 280 276 273 270 266 264 262 262 263 264 266 267 269 270 272 274 276 278 281 283 286 288 291 294 296 298 299 300 300 300
298 297 296 297 299 304 308 312 315 316 316 314 311 307 304 300 297 296 294 293 292 292 291 289 288 287 285 284 283 282 282 282 282 283 284 285 284 283 281 278 274 271 269 267 265 264 264 264 266 267 269 270 272 274 276 278 280 282 285 287 290 292 295 297 298 299 300 300 300
296 295 295 297 301 305 309 312 314 315 315 313 310 306 301 297 294 292 291 290 289 289 288 287 287 286 284 283 281 280 280 281 282 283 283 283 282 280 278 274 271 269 268 267 266 266 266 267 268 269 271 273 274 276 278 280 282 284 286 289 291 293 295 296 297 297 298 298 299
294 294 296 299 302 306 309 312 313 314 314 312 309 303 298 293 290 289 288 287 287 286 285 284 284 283 282 281 279 278 279 281 283 284 283 282 280 277 274 272 269 268 267 267 267 267 268 269 270 271 273 274 276 278 280 282 284 286 288 291 292 294 294 295 295 295 295 296 296
293 295 297 300 304 307 309 311 312 313 312 310 306 300 294 289 287 285 285 284 284 283 283 282 281 280 279 278 277 277 279 281 283 284 283 280 277 274 272 270 268 267 267 267 267 268 269 270 271 273 274 276 278 280 282 284 287 289 291 293 294 294 294 294 293 293 293 294 294
295 297 299 302 304 307 309 310 311 311 310 307 301 295 289 285 283 282 282 282 281 281 280 279 279 278 277 276 276 277 278 281 282 282 280 277 274 271 269 268 267 267 267 267 268 269 270 271 273 274 276 278 280 283 286 288 291 293 294 295 295 295 294 293 293 292 293 293 293
296 298 300 301 303 305 307 308 309 309 307 303 297 290 285 282 281 280 280 279 279 278 278 278 277 276 275 274 275 276 278 281 282 280 277 274 270 268 267 267 266 266 267 268 269 271 272 274 276 278 281 283 285 288 290 292 294 295 296 296 296 295 295 294 293 293 293 293 293
296 297 298 300 302 303 305 306 307 307 306 302 296 289 283 281 279 278 278 277 277 277 277 276 275 273 272 273 274 277 279 281 281 278 273 269 267 266 265 265 265 266 268 270 273 275 278 281 284 287 289 291 293 294 296 297 298 298 298 297 297 296 295 295 294 294 294 293 293
295 295 297 298 300 301 303 305 307 307 307 303 298 290 284 280 278 277 276 276 276 276 274 272 270 270 270 272 275 278 281 281 279 274 270 266 265 264 265 267 269 272 275 278 282 285 289 291 294 296 297 299 299 300 300 300 299 299 298 298 297 296 296 296 295 294 294 294 294
294 295 296 297 298 300 302 304 307 308 308 305 299 292 286 281 278 276 275 274 273 271 268 266 266 267 270 273 277 279 280 278 275 272 270 269 270 272 274 277 281 285 288 291 294 297 299 300 302 302 303 303 302 302 301 300 300 299 299 298 297 297 296 296 296 296 296 297 298
294 295 295 296 297 298 301 304 307 309 309 305 299 292 286 282 278 276 273 270 267 264 263 263 264 267 271 275 277 278 276 274 274 274 276 280 283 287 290 294 296 298 300 302 303 304 305 305 305 305 304 303 302 302 301 300 300 299 299 298 298 298 298 298 299 299 300 301 301
294 295 295 295 296 298 302 306 309 310 309 305 297 290 284 280 276 273 269 265 262 260 261 262 265 269 273 276 277 277 277 279 283 288 292 296 299 301 304 305 307 308 308 308 309 308 308 308 307 306 304 303 302 301 301 300 300 299 299 299 299 300 301 301 302 303 303 304 304
295 295 295 295 297 300 304 308 310 311 308 302 294 285 280 276 273 270 266 263 263 264 265 268 272 277 281 283 286 289 294 298 301 304 306 308 310 311 312 313 314 314 313 312 312 311 310 309 308 306 304 303 302 301 300 300 300 301 301 302 302 303 303 304 304 304 304 305 305
296 295 296 297 299 303 307 309 311 310 306 298 289 282 277 275 275 275 274 274 277 281 287 293 298 302 305 306 309 310 312 313 314 315 315 316 316 317 318 319 318 317 315 313 312 311 310 309 308 306 305 303 302 302 302 302 303 303 304 304 305 305 305 305 304 305 305 306 306
296 296 297 299 302 305 308 310 311 308 303 295 288 283 281 284 289 295 300 303 307 312 317 320 321 322 322 322 321 321 320 320 320 320 320 320 320 320 320 320 319 316 314 313 312 311 309 308 307 306 306 305 304 304 305 305 305 306 306 306 305 305 305 305 305 305 306 307 307
296 297 298 300 303 306 309 310 310 307 302 297 293 293 297 305 315 323 327 328 328 328 328 328 328 327 327 327 326 325 324 323 322 321 320 320 319 319 320 319 317 314 312 311 310 309 309 308 308 307 307 307 307 307 307 307 307 306 306 306 305 305 305 306 306 307 308 308 307
297 297 299 301 304 307 309 310 309 307 304 304 306 311 317 324 331 334 333 332 330 329 328 328 330 331 331 330 329 327 325 323 321 320 319 319 318 318 318 317 315 312 311 310 310 309 309 309 309 309 308 308 308 308 308 307 307 306 306 306 306 306 306 307 308 308 308 308 307
297 298 299 301 304 306 309 310 310 309 309 313 320 326 330 334 335 334 332 330 329 329 330 332 334 335 334 333 330 327 324 321 320 319 318 317 317 316 315 314 313 311 310 310 310 309 309 309 309 310 309 309 309 309 308 308 307 306 306 306 307 307 308 308 308 308 307 307 305
297 297 298 300 303 307 310 312 311 312 316 322 329 334 337 337 336 334 333 332 332 333 335 337 337 336 334 331 328 325 323 321 319 318 317 316 315 314 313 313 312 311 310 310 310 310 310 310 310 310 310 310 310 310 309 308 308 307 308 308 309 309 310 309 309 308 307 305 304
295 294 296 299 304 309 313 313 314 319 325 331 335 337 338 338 339 338 338 337 337 337 337 336 335 333 331 328 326 323 321 319 318 317 316 315 314 314 313 312 312 311 311 311 310 311 311 311 311 312 312 312 312 311 310 309 309 309 309 310 310 311 310 310 309 308 307 306 304
289 290 294 300 307 311 314 316 323 331 335 337 337 337 339 340 342 342 341 339 336 335 334 333 332 330 329 327 325 322 320 318 317 317 316 315 315 314 313 312 312 312 312 312 312 312 313 313 314 314 315 314 313 312 310 310 310 310 310 310 311 311 310 309 309 308 308 308 308
284 287 294 303 309 313 319 328 336 339 339 337 336 336 338 340 342 342 339 335 332 331 330 330 330 328 327 326 324 321 320 319 318 318 317 316 315 314 314 313 313 313 314 314 314 315 315 316 317 317 317 316 315 313 311 310 310 310 310 310 310 310 310 310 310 310 311 312 313
285 291 300 309 315 325 336 343 342 339 335 332 331 331 333 336 337 336 333 330 328 328 328 328 328 327 326 324 323 321 320 319 319 318 318 317 316 315 315 315 315 315 315 316 317 317 318 319 319 320 319 318 316 313 311 310 310 310 310 311 311 311 311 311 311 313 314 315 315
291 302 316 326 336 344 347 344 338 332 329 327 325 326 328 330 331 329 327 326 326 326 326 326 326 325 325 323 322 322 321 320 319 319 318 317 317 316 316 316 316 316 317 318 318 319 320 321 322 322 321 320 316 313 311 310 310 311 311 313 313 313 313 312 313 314 316 316 315
Height
1520 1519 1518 1517 1516 1515 1515 1514 1513 1512 1511 1510 1509 1508 1507 1505 1504 1503 1502 1501 1500 1499 1498 1497 1497 1495 1495 1494 1492 1491 1490 1489 1489 1488 1487 1486 1486 1486 1486 1485 1485 1485 1485 1485 1485 1484 1484 1484 1484 1483 1483 1483 1483 1483 1483 1483 1484 1484 1484 1484 1484 1484 1484 1484 1484 1483 1483 1483 1482
1518 1517 1516 1515 1515 1514 1513 1512 1511 1510 1510 1508 1507 1506 1505 1504 1503 1502 1501 1500 1499 1498 1497 1496 1495 1494 1493 1492 1491 1490 1489 1488 1487 1487 1486 1486 1485 1485 1485 1485 1485 1485 1485 1485 1485 1484 1484 1483 1483 1483 1483 1483 1483 1483 1483 1484 1484 1484 1483 1483 1483 1483 1482 1482 1482 1481 1481 1481 1480
1516 1515 1515 1514 1513 1512 1511 1511 1510 1509 1508 1506 1505 1504 1503 1502 1501 1500 1499 1498 1497 1496 1495 1494 1493 1492 1491 1490 1490 1489 1488 1487 1486 1486 1485 1485 1485 1485 1485 1485 1485 1485 1485 1485 1485 1484 1484 1484 1483 1483 1483 1483 1483 1483 1483 1483 1482 1482 1481 1481 1481 1480 1480 1480 1480 1480 1479 1479 1479
1515 1514 1513 1512 1511 1510 1510 1509 1508 1507 1506 1505 1504 1503 1502 1501 1500 1499 1498 1497 1496 1495 1494 1493 1492 1491 1490 1489 1488 1488 1487 1486 1486 1485 1485 1485 1484 1484 1484 1484 1484 1484 1484 1484 1484 1484 1484 1483 1483 1483 1482 1482 1482 1482 1481 1481 1481 1480 1480 1479 1479 1479 1478 1478 1478 1478 1478 1478 1478
1513 1512 1511 1510 1510 1509 1508 1507 1506 1505 1504 1503 1502 1501 1500 1499 1498 1497 1496 1495 1494 1493 1492 1491 1490 1490 1489 1488 1487 1487 1486 1486 1485 1485 1485 1484 1484 1484 1484 1484 1483 1483 1483 1483 1483 1483 1483 1482 1482 1482 1481 1481 1481 1481 1480 1480 1479 1479 1478 1478 1478 1477 1477 1477 1477 1477 1477 1477 1477
1511 1510 1510 1509 1508 1507 1506 1505 1505 1504 1502 1501 1500 1500 1499 1497 1496 1495 1494 1493 1492 1491 1490 1490 1489 1488 1488 1487 1486 1486 1485 1485 1485 1484 1484 1484 1484 1483 1483 1483 1482 1482 1482 1481 1481 1481 1481 1481 1480 1480 1480 1480 1480 1479 1479 1479 1478 1478 1477 1477 1477 1477 1477 1477 1477 1477 1477 1477 1477
1510 1509 1508 1507 1506 1505 1504 1504 1503 1502 1501 1500 1499 1498 1497 1496 1495 1494 1492 1491 1490 1490 1489 1488 1488 1487 1487 1486 1485 1485 1484 1484 1484 1483 1483 1483 1482 1482 1481 1481 1480 1480 1480 1480 1480 1480 1480 1479 1479 1479 1478 1478 1478 1478 1477 1477 1477 1477 1477 1477 1477 1476 1476 1476 1476 1476 1476 1476 1476
1508 1507 1506 1505 1504 1504 1503 1502 1501 1500 1499 1498 1497 1496 1495 1494 1493 1492 1491 1490 1489 1488 1488 1487 1486 1486 1485 1485 1484 1484 1483 1483 1482 1482 1481 1481 1480 1480 1479 1479 1479 1479 1478 1478 1478 1478 1478 1477 1477 1477 1476 1476 1476 1476 1476 1475 1475 1475 1475 1475 1475 1475 1475 1475 1475 1475 1475 1475 1475
1505 1505 1504 1503 1502 1502 1501 1500 1499 1498 1497 1496 1495 1494 1493 1492 1491 1490 1489 1488 1487 1487 1486 1486 1485 1485 1485 1484 1484 1483 1482 1482 1481 1480 1479 1478 1478 1477 1477 1477 1477 1476 1476 1476 1476 1476 1475 1475 1475 1475 1475 1475 1474 1474 1474 1474 1474 1474 1474 1474 1474 1474 1474 1474 1474 1474 1474 1474 1474
1504 1503 1502 1501 1500 1500 1500 1499 1498 1497 1496 1495 1493 1492 1491 1490 1490 1489 1488 1487 1486 1485 1485 1485 1484 1484 1484 1483 1483 1482 1481 1480 1479 1478 1477 1477 1476 1475 1475 1475 1475 1474 1474 1474 1474 1474 1473 1473 1473 1473 1473 1473 1473 1473 1473 1473 1472 1472 1472 1472 1472 1472 1472 1472 1472 1472 1472 1472 1472
1502 1501 1500 1500 1499 1498 1498 1497 1496 1495 1494 1493 1492 1491 1490 1489 1488 1487 1486 1485 1485 1484 1483 1483 1483 1483 1482 1482 1481 1480 1480 1479 1477 1476 1476 1475 1474 1474 1473 1473 1472 1472 1472 1472 1471 1471 1471 1471 1471 1471 1471 1471 1471 1471 1471 1471 1471 1471 1471 1471 1470 1470 1470 1470 1470 1470 1470 1470 1470
1500 1499 1499 1498 1497 1496 1496 1495 1494 1494 1493 1492 1490 1490 1488 1487 1486 1485 1485 1484 1483 1483 1482 1482 1482 1481 1481 1480 1480 1479 1478 1477 1476 1475 1474 1473 1473 1472 1471 1471 1470 1470 1470 1470 1469 1469 1469 1470 1470 1470 1470 1470 1470 1470 1470 1470 1470 1470 1470 1469 1469 1469 1469 1469 1469 1469 1468 1468 1468
1498 1498 1497 1496 1495 1495 1494 1493 1492 1492 1491 1490 1489 1488 1487 1486 1485 1484 1483 1483 1482 1481 1481 1480 1480 1480 1480 1479 1478 1478 1477 1475 1475 1474 1473 1472 1471 1470 1470 1469 1469 1468 1468 1468 1467 1467 1467 1467 1468 1468 1468 1468 1468 1468 1468 1468 1468 1468 1468 1468 1467 1467 1467 1467 1467 1466 1466 1466 1465
1496 1496 1495 1494 1494 1493 1492 1491 1491 1490 1490 1489 1488 1487 1485 1485 1484 1483 1482 1481 1481 1480 1480 1479 1479 1478 1478 1477 1477 1476 1475 1474 1473 1472 1471 1470 1470 1469 1468 1468 1467 1467 1466 1466 1465 1465 1465 1465 1466 1466 1466 1466 1466 1466 1466 1466 1466 1466 1466 1466 1466 1465 1465 1465 1465 1465 1464 1464 1463
1495 1494 1493 1492 1492 1491 1490 1490 1489 1488 1488 1487 1486 1485 1484 1483 1482 1482 1481 1480 1480 1479 1478 1478 1477 1477 1476 1476 1475 1475 1474 1473 1472 1471 1470 1469 1468 1468 1467 1466 1466 1465 1465 1464 1464 1464 1464 1464 1464 1464 1464 1464 1464 1464 1464 1464 1464 1464 1464 1464 1464 1463 1463 1463 1462 1462 1462 1461 1461
1493 1492 1491 1490 1490 1489 1489 1488 1487 1486 1485 1485 1484 1483 1482 1481 1480 1480 1480 1479 1478 1478 1477 1476 1476 1475 1475 1474 1474 1473 1472 1472 1471 1470 1469 1468 1467 1466 1465 1465 1464 1464 1463 1463 1462 1462 1462 1462 1462 1462 1462 1462 1462 1462 1462 1462 1462 1462 1461 1461 1461 1461 1461 1460 1460 1460 1459 1459 1458
1491 1490 1490 1489 1488 1488 1487 1486 1486 1485 1484 1483 1482 1481 1480 1480 1479 1478 1478 1477 1477 1476 1475 1475 1474 1474 1473 1473 1472 1472 1471 1470 1469 1469 1468 1466 1466 1465 1464 1463 1463 1462 1462 1461 1461 1460 1460 1460 1460 1460 1460 1460 1460 1460 1460 1459 1459 1459 1459 1459 1459 1458 1458 1458 1457 1457 1457 1456 1456
1490 1489 1488 1487 1486 1486 1485 1485 1484 1483 1482 1481 1480 1479 1478 1478 1477 1476 1476 1475 1475 1474 1474 1473 1472 1472 1471 1471 1470 1470 1469 1469 1468 1467 1466 1465 1464 1463 1463 1462 1461 1460 1460 1460 1459 1459 1459 1458 1458 1458 1457 1457 1457 1457 1457 1457 1457 1457 1456 1456 1456 1456 1455 1455 1455 1455 1454 1454 1453
1489 1487 1486 1485 1485 1484 1483 1483 1482 1481 1480 1479 1478 1477 1476 1475 1475 1475 1474 1474 1473 1472 1472 1471 1470 1470 1470 1469 1468 1468 1467 1467 1466 1465 1465 1464 1463 1462 1461 1460 1460 1459 1458 1458 1457 1457 1457 1456 1456 1455 1455 1455 1455 1455 1455 1455 1454 1454 1454 1454 1454 1453 1453 1453 1452 1452 1451 1451 1450
1487 1486 1485 1484 1483 1482 1481 1480 1480 1479 1478 1477 1476 1475 1474 1474 1473 1473 1472 1471 1471 1470 1470 1469 1468 1468 1467 1467 1466 1466 1466 1465 1465 1464 1463 1463 1462 1461 1460 1459 1458 1457 1457 1456 1456 1455 1455 1455 1454 1454 1453 1453 1453 1453 1452 1452 1452 1452 1451 1451 1451 1451 1450 1450 1450 1450 1449 1449 1448
1486 1485 1483 1482 1481 1480 1479 1478 1477 1477 1475 1475 1474 1473 1472 1471 1471 1470 1470 1469 1469 1468 1467 1467 1466 1466 1465 1465 1465 1464 1464 1464 1463 1463 1462 1461 1460 1460 1459 1458 1457 1456 1455 1455 1454 1454 1453 1453 1452 1452 1451 1451 1451 1450 1450 1450 1450 1450 1449 1449 1449 1448 1448 1448 1447 1447 1446 1446 1445
1485 1484 1482 1481 1479 1478 1477 1476 1475 1475 1474 1473 1472 1471 1470 1470 1469 1468 1468 1467 1467 1466 1465 1465 1464 1464 1463 1463 1463 1463 1462 1462 1462 1461 1460 1460 1459 1458 1457 1456 1455 1455 1454 1453 1453 1452 1452 1451 1451 1450 1450 1449 1449 1448 1448 1448 1447 1447 1447 1447 1446 1446 1445 1445 1445 1445 1444 1443 1443
1483 1482 1481 1479 1477 1476 1475 1474 1473 1473 1472 1471 1470 1469 1468 1468 1467 1466 1466 1465 1465 1464 1463 1463 1462 1462 1461 1461 1461 1461 1460 1460 1460 1459 1459 1458 1457 1456 1455 1455 1454 1453 1452 1452 1451 1450 1450 1450 1449 1448 1448 1447 1447 1446 1446 1446 1445 1445 1445 1444 1444 1444 1443 1443 1442 1442 1441 1440 1440
1482 1480 1479 1477 1475 1474 1473 1472 1471 1470 1470 1469 1468 1467 1467 1466 1465 1464 1464 1463 1462 1462 1461 1461 1460 1460 1460 1459 1459 1459 1458 1458 1458 1457 1457 1456 1455 1455 1454 1453 1452 1452 1451 1450 1450 1449 1448 1448 1447 1446 1446 1445 1445 1444 1444 1444 1443 1443 1442 1442 1441 1441 1440 1440 1439 1439 1438 1438 1437
1480 1478 1477 1475 1474 1472 1471 1470 1469 1469 1468 1467 1466 1466 1465 1464 1464 1463 1462 1461 1460 1460 1460 1459 1458 1458 1457 1457 1456 1456 1456 1456 1455 1455 1455 1454 1454 1453 1452 1451 1451 1450 1449 1449 1448 1447 1446 1446 1445 1445 1444 1443 1443 1442 1442 1441 1441 1440 1440 1439 1439 1438 1438 1437 1436 1436 1435 1435 1434
1477 1476 1475 1473 1471 1470 1469 1468 1467 1467 1466 1465 1465 1464 1464 1463 1462 1461 1460 1460 1459 1458 1458 1457 1456 1455 1455 1455 1454 1454 1454 1454 1454 1453 1453 1452 1452 1451 1451 1450 1449 1449 1448 1447 1446 1445 1445 1444 1443 1442 1442 1441 1440 1440 1439 1439 1438 1438 1437 1437 1436 1435 1435 1435 1434 1433 1433 1432 1431
1475 1474 1473 1471 1470 1468 1467 1466 1466 1465 1464 1464 1463 1463 1462 1461 1460 1460 1459 1458 1457 1456 1456 1455 1454 1453 1453 1453 1452 1452 1452 1452 1452 1452 1451 1451 1450 1450 1449 1449 1448 1447 1446 1445 1445 1444 1443 1442 1441 1440 1440 1439 1438 1438 1437 1437 1436 1435 1435 1435 1434 1433 1433 1432 1431 1430 1430 1429 1428
1473 1472 1471 1469 1468 1467 1466 1465 1464 1463 1463 1462 1462 1461 1460 1460 1459 1459 1458 1457 1456 1455 1454 1453 1452 1451 1451 1451 1451 1451 1451 1450 1450 1450 1450 1450 1449 1448 1448 1447 1446 1445 1445 1444 1443 1442 1441 1440 1440 1439 1438 1437 1436 1436 1435 1435 1434 1434 1433 1432 1431 1431 1430 1429 1428 1427 1426 1425 1425
1471 1470 1469 1468 1466 1465 1465 1464 1463 1462 1461 1460 1460 1459 1459 1458 1458 1457 1456 1455 1454 1452 1452 1451 1450 1450 1450 1450 1450 1450 1450 1450 1450 1449 1449 1448 1447 1447 1446 1445 1445 1444 1443 1442 1441 1440 1440 1439 1438 1437 1436 1436 1435 1434 1434 1433 1432 1431 1430 1430 1429 1428 1427 1426 1425 1424 1423 1422 1421
1470 1468 1467 1466 1465 1464 1463 1462 1461 1460 1459 1458 1458 1457 1457 1457 1456 1456 1455 1453 1452 1451 1450 1450 1449 1449 1449 1449 1449 1449 1449 1449 1448 1448 1447 1446 1446 1445 1444 1444 1443 1442 1441 1440 1440 1439 1438 1437 1436 1435 1435 1434 1433 1432 1431 1431 1430 1429 1428 1427 1426 1425 1424 1423 1422 1421 1420 1420 1419
1467 1466 1465 1464 1463 1462 1461 1460 1459 1458 1457 1456 1455 1455 1455 1455 1455 1454 1453 1453 1452 1452 1451 1450 1450 1450 1449 1449 1449 1448 1448 1448 1447 1446 1445 1445 1444 1444 1443 1442 1441 1440 1440 1439 1438 1437 1436 1435 1435 1434 1433 1432 1431 1430 1429 1428 1427 1426 1425 1424 1423 1422 1421 1420 1420 1419 1418 1417 1416
1465 1464 1463 1462 1461 1460 1459 1458 1457 1456 1455 1455 1454 1453 1453 1453 1453 1453 1453 1453 1453 1452 1451 1451 1450 1450 1449 1448 1448 1447 1446 1446 1445 1445 1444 1443 1443 1442 1441 1440 1440 1439 1438 1437 1436 1435 1435 1434 1433 1432 1431 1430 1429 1428 1427 1426 1425 1424 1423 1422 1421 1420 1419 1418 1417 1416 1415 1415 1414
1463 1462 1461 1460 1459 1457 1456 1456 1455 1455 1454 1454 1453 1452 1452 1451 1452 1452 1452 1452 1452 1451 1450 1450 1449 1448 1447 1447 1446 1445 1445 1445 1444 1444 1443 1442 1441 1440 1440 1439 1438 1437 1436 1435 1435 1434 1433 1432 1431 1430 1429 1428 1427 1426 1425 1424 1422 1421 1420 1419 1418 1417 1416 1415 1415 1414 1413 1412 1411
1460 1459 1458 1457 1456 1455 1455 1454 1454 1454 1454 1453 1452 1451 1450 1450 1450 1450 1450 1450 1450 1450 1449 1448 1447 1447 1446 1445 1445 1445 1444 1444 1443 1442 1441 1440 1440 1439 1438 1437 1437 1436 1435 1434 1433 1432 1431 1430 1429 1428 1427 1426 1425 1424 1423 1421 1420 1419 1418 1417 1416 1415 1414 1413 1412 1411 1410 1409 1409
1458 1456 1455 1455 1454 1453 1453 1452 1452 1453 1453 1452 1451 1450 1449 1448 1448 1448 1449 1449 1449 1448 1448 1447 1446 1446 1445 1445 1444 1444 1443 1442 1442 1441 1440 1439 1438 1438 1437 1436 1435 1434 1433 1432 1431 1430 1430 1429 1427 1426 1425 1424 1423 1422 1420 1419 1418 1417 1415 1415 1413 1412 1411 1410 1409 1409 1408 1407 1406
1455 1454 1453 1453 1452 1452 1451 1451 1451 1452 1452 1451 1450 1449 1448 1447 1446 1447 1447 1447 1447 1447 1446 1446 1445 1445 1445 1444 1443 1443 1442 1441 1440 1439 1438 1438 1437 1436 1435 1435 1434 1433 1432 1431 1430 1429 1428 1427 1425 1425 1423 1422 1421 1420 1418 1417 1415 1414 1413 1412 1411 1410 1409 1408 1407 1406 1405 1405 1404
1453 1452 1451 1451 1450 1450 1450 1450 1450 1451 1450 1450 1449 1448 1447 1446 1445 1445 1446 1446 1446 1446 1446 1445 1445 1445 1444 1443 1442 1441 1440 1440 1439 1438 1437 1436 1435 1435 1434 1433 1432 1431 1430 1429 1428 1427 1426 1425 1424 1423 1421 1420 1419 1417 1416 1415 1413 1412 1410 1409 1408 1407 1406 1405 1405 1404 1403 1403 1402
1451 1450 1450 1449 1449 1449 1449 1450 1450 1450 1450 1449 1448 1447 1446 1445 1444 1444 1445 1445 1445 1445 1445 1445 1444 1443 1443 1442 1441 1440 1439 1438 1437 1436 1435 1435 1434 1433 1432 1431 1430 1430 1429 1428 1427 1425 1424 1423 1422 1420 1419 1418 1417 1415 1414 1412 1411 1410 1408 1407 1406 1405 1404 1404 1403 1402 1401 1400 1400
1450 1449 1448 1448 1448 1448 1448 1449 1449 1449 1449 1448 1448 1447 1445 1444 1443 1443 1444 1444 1444 1444 1444 1443 1443 1442 1441 1440 1440 1439 1438 1437 1436 1435 1434 1433 1432 1431 1430 1430 1429 1428 1427 1426 1425 1424 1422 1421 1420 1419 1417 1416 1415 1413 1412 1410 1409 1408 1407 1405 1405 1403 1402 1401 1400 1400 1399 1398 1398
1448 1447 1447 1447 1447 1448 1448 1448 1448 1448 1448 1448 1447 1446 1445 1444 1443 1443 1443 1443 1443 1443 1442 1442 1441 1440 1440 1439 1438 1437 1436 1435 1435 1434 1433 1432 1431 1430 1429 1428 1427 1426 1425 1424 1423 1422 1420 1420 1418 1417 1415 1414 1413 1411 1410 1409 1407 1406 1405 1404 1403 1401 1400 1400 1399 1398 1397 1396 1396
1447 1446 1446 1447 1447 1447 1447 1448 1448 1448 1448 1447 1446 1445 1444 1443 1442 1442 1442 1442 1442 1441 1441 1440 1440 1439 1438 1437 1437 1436 1435 1434 1433 1432 1431 1430 1430 1428 1427 1426 1425 1425 1424 1422 1421 1420 1419 1418 1416 1415 1414 1412 1411 1410 1409 1407 1406 1405 1403 1402 1401 1400 1399 1398 1397 1396 1395 1395 1394